Weather in Melekshino

Russia / Ryazan Oblast     54°09′28″N   40°11′51″E
temp.,
°C
wind,
m/s
gust,
m/s
humid.,
%
clouds,
%
prec.,
mm/h
press.,
hPa
HPBL,
m
13 august, sat
sat1300:00+17nne226055 0.0 102316
03:00+16ne226692 0.0 102313
06:00+16ne22693 0.0 102335
09:00+23ene33451 0.0 1022414
12:00+27ne22320 0.0 10221240
15:00+29n22295 0.0 10201509
18:00+27n33365 0.0 1020119
21:00+21ne344483 0.0 102048
14 august, sun
sun1400:00+18ene3456100 0.0 102053
03:00+17e225581 0.0 102014
06:00+17ene3360100 0.0 102063
09:00+23e3446100 0.0 1020408
12:00+27ese4435100 0.0 10191273
15:00+28ese3332100 0.0 10191742
18:00+27ne353879 0.0 1018230
21:00+21e365698 0.0 101992
15 august, mon
mon1500:00+20ene3558100 0.0 101977
03:00+18ene3471100 0.0 101959
06:00+18e3672100 0.0 1020134
09:00+24se464998 0.0 1020571
12:00+29ese563516 0.0 10202179
15:00+30e553030 0.0 10192597
18:00+28e57345 0.0 1019833
21:00+22e513504 0.0 1021331
16 august, tue
tue1600:00+20ese5135516 0.0 1022327
03:00+17e410635 0.0 1022212
06:00+16e496264 0.0 1023194
09:00+23e68405 0.0 1023764
12:00+27e67295 0.0 10221765
15:00+29e67255 0.0 10202213
18:00+28e57326 0.0 1020752
21:00+23e6144051 0.0 1020425
17 august, wed
wed1700:00+20e5144590 0.0 1021338
03:00+18e41155100 0.0 1020223
06:00+17ene4962100 0.0 1021212
09:00+24e5743100 0.0 1020461
12:00+28ese6730100 0.0 10191354
15:00+30ese5526100 0.0 10182158
18:00+27ese573196 0.0 1018711
21:00+21e41048100 0.0 1019158